Location: Bannatyne
(13.0833°N, 59.5333°W)
Time: 07:04:01
(UTC+00:00)

Envisat - Pass Details

Date: 25 June 2021
Orbit: 764 x 766 km, 98.2° (Epoch: 03 August)

Event Time Altitude Azimuth Distance (km) Brightness Sun altitude
Rises 07:50:54 0° 48° (NE) 3,220 7.6 -23.0°
Reaches altitude 10° 07:55:27 10° 87° (E) 2,293 6.3 -22.0°
Maximum altitude 07:56:27 11° 98° (E) 2,255 6.1 -21.8°
Drops below altitude 10° 07:57:28 10° 110° (ESE) 2,293 5.9 -21.6°
Sets 08:01:59 0° 148° (SSE) 3,217 6.2 -20.7°
